Probability
0 0 0 0 0 0 0 0 0 0 0 0 0 0 0 0 0 0 0 0 0 0 0 0 0 0 0 0 0 0 0 0 0 0 0 0 0 0 0 0 0 0 0 0
0 0 0 0 0 0 0 0 0 0 0 0 0 0 0 0 0 0 0 0 0 0 0 0 0 0 0 0 0 0 0 0 0 0 0 0 0 0 0 0 0 0 0 0
0 0 0 0 0 0 0 0 0 0 0 0 0 0 0 0 0 0 0 0 0 0 0 0 0 0 0 0 0 0 0 0 0 0 0 0 0 0 0 0 0 0 0 0
0 0 0 0 0 0 0 0 0 0 0 0 0 0 0 0 0 0 0 0 0 0 0 0 0 0 0 0 0 0 0 0 0 0 0 0 0 0 0 0 0 0 0 0
0 0 0 0 0 0 0 0 0 0 0 0 0 0 0 0 0 0 0 0 0 0 0 0 0 0 0 0 0 0 0 0 0 0 0 0 0 0 0 0 0 0 0 0
0 0 0 0 0 0 0 0 0 0 0 0 0 0 0 0 0 0 0 0 0 0 0 0 0 0 0 0 0 0 0 0 0 0 0 0 0 0 0 0 0 0 0 0
0 0 0 0 0 0 0 0 0 0 0 0 0 0 0 0 0 0 0 0 0 0 0 0 0 0 0 0 0 0 0 0 0 0 0 0 0 0 0 0 0 0 0 0
0 0 0 0 0 0 0 0 0 0 0 0 0 0 0 0 0 0 0 0 0 0 0 0 0 0 0 0 0 0 0 0 0 0 0 0 0 0 0 0 0 0 0 0
0 0 0 0 0 0 0 0 0 0 0 0 0 0 0 0 0 0 0 0 0 0 0 0 0 0 0 0 0 0 0 0 0 0 0 0 0 0 0 0 0 0 0 0
0 0 0 0 0 0 0 0 0 0 0 0 0 0 0 0 0 0 0 0 0 0 0 0 0 0 0 0 0 0 0 0 0 0 0 0 0 0 0 0 0 0 0 0
0 0 0 0 0 0 0 0 0 0 0 0 0 0 0 0 0 0 0 0 0 0 0 0 0 0 0 0 0 0 0 0 0 0 0 0 0 0 0 0 0 0 0 0
0 0 0 0 0 0 0 0 0 0 0 0 0 0 0 0 0 0 0 0 0 0 0 0 0 0 0 0 0 0 0 0 0 0 0 0 0 0 0 0 0 0 0 0
0 0 0 0 0 0 0 0 0 0 0 0 0 0 0 0 0 0 0 0 0 0 0 0 0 0 0 0 0 0 0 0 0 0 0 0 0 0 0 0 0 0 0 0
0 0 0 0 0 0 0 0 0 0 0 0 0 0 0 0 0 0 0 0 0 0 0 0 0 0 0 0 0 0 0 0 0 0 0 0 0 0 0 0 0 0 0 0
0 0 0 0 0 0 0 0 0 0 0 0 0 0 0 0 0 0 0 0 0 0 0 0 0 0 0 0 0 0 0 0 0 0 0 0 0 0 0 0 0 0 0 0
0 0 0 0 0 0 0 0 0 0 0 0 0 0 0 0 0 0 0 0 0 0 0 0 0 0 0 0 0 0 0 0 0 0 0 0 0 0 0 0 0 0 0 0
0 0 0 0 0 0 0 0 0 0 0 0 0 0 0 0 0 0 0 0 0 0 0 0 0 0 0 0 0 0 0 0 0 0 0 0 0 0 0 0 0 0 0 0
0 0 0 0 0 0 0 0 0 0 0 0 0 0 0 0 0 0 0 0 0 0 0 0 0 0 0 0 0 0 0 0 0 0 0 0 0 0 0 0 0 0 0 0
0 0 0 0 0 0 0 0 0 0 0 0 0 0 0 0 0 0 0 0 0 0 0 0 0 0 0 0 0 0 0 0 0 0 0 0 0 0 0 0 0 0 0 0
0 0 0 0 0 0 0 0 0 0 0 0 0 0 0 0 0 0 0 0 0 0 0 0 0 0 0 0 0 0 0 0 0 0 0 0 0 0 0 0 0 0 0 0
0 0 0 0 0 0 0 0 0 0 0 0 0 0 0 0 0 0 0 0 0 0 0 0 0 0 0 0 0 0 0 0 0 0 0 0 0 0 0 0 0 0 0 0
0 0 0 0 0 0 0 0 0 0 0 0 0 0 0 0 0 0 0 0 0 0 0 0 0 0 0 0 0 0 0 0 0 0 0 0 0 0 0 0 0 0 0 0
0 0 0 0 0 0 0 0 0 0 0 0 0 0 0 0 0 0 0 0 0 0 0 0 0 0 0 0 0 0 0 0 0 0 0 0 0 0 0 0 0 0 0 0
0 0 0 0 0 0 0 0 0 0 0 0 0 0 0 0 0 0 0 0 0 0 0 0 0 0 0 0 0 0 0 0 0 0 0 0 0 0 0 0 0 0 0 0
0 0 0 0 0 0 0 0 0 0 0 0 0 0 0 0 0 0 0 0 0 0 0 0 0 0 0 0 0 0 0 0 0 0 0 0 0 0 0 0 0 0 0 0
0 0 0 0 0 0 0 0 0 0 0 0 0 0 0 0 0 0 0 0 0 0 0 0 0 0 0 0 0 0 0 0 0 0 0 0 0 0 0 0 0 0 0 0
0 0 0 0 0 0 0 0 0 0 0 0 0 0 0 0 0 0 0 0 0 0 0 0 0 0 0 0 0 0 0 0 0 0 0 0 0 0 0 0 0 0 0 0
Wind_Speed
5 4 3 5 6 7 7 8 9 9 9 10 9 9 9 8 9 9 8 8 8 7 5 5 4 3 3 2 2 2 2 1 0 1 1 1 2 2 3 3 3 3 4 4
2 1 3 4 6 8 8 6 7 5 9 8 4 5 7 9 11 11 10 10 9 8 7 6 6 5 4 3 2 2 2 1 0 1 1 2 2 2 3 3 3 3 4 4
3 3 2 6 8 8 6 7 9 10 11 4 5 10 12 13 13 13 12 10 10 10 8 7 7 6 5 4 3 3 2 1 0 0 1 1 2 2 2 3 3 4 4 4
1 1 5 9 3 5 6 6 8 7 6 7 8 7 6 8 12 12 11 10 10 9 8 6 5 5 4 4 3 3 2 1 1 1 0 1 1 2 2 2 2 3 4 5
3 2 7 9 4 5 5 6 6 7 5 4 5 4 2 7 10 11 11 10 9 9 7 6 6 6 5 4 3 3 3 2 2 1 1 1 1 2 2 2 3 3 4 4
4 3 6 9 3 1 3 5 4 6 6 7 8 4 6 7 9 8 7 7 7 7 6 6 5 6 6 5 4 4 4 3 2 2 2 2 2 2 2 2 3 3 4 4
5 5 9 8 2 3 4 8 3 6 8 11 9 7 4 6 7 8 8 7 8 8 7 7 6 7 6 5 5 5 4 3 2 2 3 3 2 2 2 2 3 3 5 5
5 5 10 3 4 7 8 3 2 4 6 8 6 2 3 6 7 8 8 7 8 8 6 5 6 7 6 6 5 4 3 3 3 3 2 1 1 2 2 2 2 4 4 6
9 8 5 3 5 4 1 2 2 4 4 7 5 4 4 5 6 7 8 8 7 7 6 5 5 7 7 6 5 4 4 3 3 3 2 2 2 2 2 2 2 3 3 5
4 7 5 4 4 2 2 2 2 3 4 6 5 5 5 5 5 6 6 7 6 7 7 6 5 6 6 5 5 5 5 4 3 3 3 2 2 2 2 3 3 3 4 5
4 6 5 4 3 2 0 0 1 2 2 5 6 5 5 6 6 6 6 5 6 7 7 7 6 6 5 5 5 5 4 4 3 3 3 3 3 3 4 5 5 5 4 4
7 6 5 5 3 1 1 1 2 2 2 2 4 5 5 5 5 6 6 6 6 6 6 6 6 6 5 5 6 6 4 4 3 3 3 3 3 4 6 7 10 11 10 8
5 2 3 3 2 1 2 2 2 3 4 3 2 4 5 4 4 5 5 6 7 7 6 6 5 5 5 5 5 6 6 5 3 3 3 3 3 3 5 6 7 9 10 11
2 1 1 2 2 1 1 1 2 2 2 2 2 3 4 3 4 5 6 7 6 5 5 5 5 6 5 5 5 6 5 6 5 4 4 4 4 4 4 4 5 5 7 10
2 2 3 2 0 1 2 3 4 2 1 1 2 3 4 4 5 6 5 4 4 4 4 4 5 6 4 4 5 5 5 4 4 4 4 4 4 4 4 5 5 5 5 7
1 1 1 2 2 1 2 2 3 1 1 1 1 3 4 4 4 3 3 4 5 6 5 5 6 6 4 4 5 4 4 8 6 4 4 4 4 4 4 5 5 5 6 6
2 0 0 0 1 1 2 2 3 3 2 2 3 2 2 2 1 2 2 3 5 5 5 6 6 5 4 5 5 4 4 5 8 5 4 4 4 5 5 5 5 6 6 8
3 4 4 4 3 2 2 1 1 2 2 3 2 2 3 3 4 4 4 2 2 2 4 5 5 4 4 4 4 4 4 4 4 4 5 5 5 5 5 5 6 7 7 7
1 1 1 2 2 2 2 2 2 2 1 1 2 2 3 4 4 4 2 2 3 5 6 5 6 4 5 6 5 4 4 4 4 5 5 7 6 5 5 6 6 7 7 6
2 1 1 0 0 0 1 1 1 1 1 1 1 1 1 2 2 2 3 4 5 5 5 4 4 4 5 6 7 4 5 5 5 5 5 5 5 6 6 7 7 7 7 7
2 1 1 1 1 1 0 1 0 1 1 1 2 2 3 3 2 2 2 4 5 5 4 6 4 4 4 5 7 4 5 5 5 5 5 5 6 6 6 7 7 7 7 7
1 1 1 1 1 1 1 1 1 1 1 1 1 2 2 2 2 2 4 5 5 6 4 3 4 6 7 7 4 4 5 5 5 5 5 5 6 6 7 7 7 7 7 7
1 1 1 1 1 1 2 1 1 1 2 2 3 3 3 3 3 3 4 4 4 6 4 4 7 10 11 5 4 4 5 6 6 6 6 6 6 6 7 8 8 7 7 8
2 1 2 1 1 0 2 3 3 2 3 3 3 4 3 3 3 4 4 6 7 8 4 6 10 12 10 4 4 5 5 6 6 6 6 6 6 6 7 7 8 7 8 9
2 2 2 1 1 2 3 3 3 3 3 3 4 4 3 3 4 5 4 5 8 8 5 7 12 12 6 4 4 5 5 6 6 6 6 6 6 7 7 7 8 8 7 8
2 2 2 3 3 3 3 2 2 3 3 3 4 4 3 3 4 4 4 5 6 7 5 4 5 7 4 5 5 6 6 6 7 6 6 6 7 7 7 8 9 8 8 8
2 2 2 3 3 3 2 3 3 4 4 4 5 4 4 3 3 4 4 4 4 4 4 4 4 4 4 5 5 6 5 5 6 6 6 6 6 7 7 9 7 7 7 8
Wind_Direction
233 232 200 212 205 184 189 193 194 224 225 240 220 205 193 178 167 167 174 179 180 180 181 179 176 174 168 170 167 141 118 104 1 317 341 354 356 350 350 353 351 342 342 337
287 248 222 237 232 204 211 207 214 234 253 243 199 160 170 176 175 181 187 187 184 181 179 183 183 181 175 179 180 152 146 168 203 28 16 0 347 349 355 350 344 348 346 335
270 308 11 266 231 202 206 203 186 212 235 191 175 189 191 186 185 190 190 187 185 185 186 187 187 180 179 182 167 156 161 170 168 109 17 338 341 359 347 337 343 343 339 337
171 36 245 246 246 199 206 229 212 224 226 193 199 196 191 185 186 192 188 186 187 185 183 183 178 173 166 158 160 161 167 181 199 184 291 328 347 333 319 314 323 323 325 326
136 213 276 292 265 180 184 254 218 212 217 170 127 95 252 203 192 194 189 184 183 180 173 168 170 167 153 157 162 165 183 199 210 199 215 278 303 298 295 302 310 310 309 316
140 178 241 253 258 190 130 275 241 187 180 152 132 152 241 200 184 181 170 165 162 157 152 161 171 159 154 167 173 194 203 206 208 205 210 235 257 273 277 281 290 306 313 310
167 208 257 255 258 127 167 241 226 178 172 164 180 199 203 159 168 166 160 158 155 155 164 174 168 159 167 178 199 206 196 192 205 217 223 229 242 257 269 288 308 314 310 308
155 191 251 246 152 181 217 241 183 174 173 177 189 164 140 153 157 155 155 155 157 161 170 170 165 164 176 199 206 190 180 189 211 225 238 231 231 271 278 286 303 308 310 310
188 211 245 232 222 243 201 213 212 178 176 166 165 171 161 157 160 163 164 163 162 164 165 171 177 175 186 207 191 177 179 201 218 226 238 232 229 254 277 278 281 292 297 300
243 266 267 268 272 278 225 222 222 180 165 159 166 170 163 162 164 166 168 168 163 159 168 186 194 197 201 198 182 175 190 208 216 220 239 249 249 241 245 257 267 279 286 289
250 273 302 302 269 264 300 69 97 105 150 163 157 169 173 173 176 175 172 171 169 175 184 196 197 205 208 193 176 183 198 210 218 223 229 242 250 244 241 242 238 251 260 262
225 227 205 251 271 243 174 206 179 135 113 138 159 172 169 177 181 175 174 171 175 184 191 198 197 208 210 197 183 183 200 215 219 225 232 237 253 280 265 256 272 271 268 267
233 241 207 254 283 208 187 204 179 158 161 167 166 163 162 171 175 169 170 177 188 194 195 194 196 210 215 200 188 192 204 215 218 221 228 235 240 250 280 293 285 280 280 284
239 170 268 255 248 249 169 143 114 99 116 148 157 153 154 155 157 172 190 197 192 184 186 188 195 218 220 197 190 202 211 225 224 220 225 230 236 241 245 261 286 292 289 291
281 222 217 237 94 79 98 98 93 79 74 76 133 155 162 169 187 203 206 188 168 174 190 190 204 228 219 193 196 209 214 222 222 222 225 231 236 242 247 252 259 273 287 293
320 28 126 132 145 124 103 115 130 169 177 169 178 195 198 196 201 203 188 167 167 194 206 203 219 230 212 198 203 212 224 240 238 227 228 234 236 241 249 254 261 266 270 273
95 35 86 164 205 201 193 192 186 194 193 198 213 207 178 159 162 197 210 201 199 208 209 209 223 225 207 202 203 213 221 243 252 245 230 233 237 242 247 250 256 261 263 265
213 213 205 199 202 208 229 231 200 198 213 223 202 155 162 178 202 219 221 206 199 233 236 227 224 219 215 215 213 216 219 227 232 235 238 240 244 243 245 249 255 262 269 274
275 229 230 216 204 197 206 216 228 230 236 198 176 191 205 212 216 218 198 180 205 238 249 238 239 231 227 231 231 219 223 232 239 243 243 250 253 248 247 249 253 257 261 266
4 9 9 342 54 139 230 251 237 243 247 176 168 197 247 254 238 215 198 215 228 232 239 239 235 232 234 239 244 224 225 232 239 246 247 247 249 252 252 252 254 257 260 260
345 350 11 9 347 328 273 243 205 266 289 217 189 217 238 254 243 211 204 248 260 250 246 251 239 235 236 243 247 227 229 235 240 245 248 250 253 255 257 258 258 260 261 262
328 323 313 321 342 319 308 291 255 265 292 282 267 253 255 268 262 249 236 239 254 260 255 246 242 247 254 256 233 228 234 238 241 243 245 248 251 256 258 260 260 261 261 261
293 284 284 276 254 270 307 298 265 245 248 251 251 248 246 249 241 236 266 263 257 265 262 248 256 264 267 255 235 235 240 243 245 245 246 249 252 255 260 262 261 261 262 263
300 292 282 280 291 334 295 288 282 269 258 257 255 250 246 259 273 255 249 273 278 277 263 263 271 274 274 248 240 242 245 247 249 250 250 251 253 255 258 260 262 263 263 264
283 288 301 298 283 268 264 275 288 288 281 276 273 265 250 233 243 261 264 265 271 277 266 271 279 283 276 254 249 249 249 250 255 257 251 255 258 259 260 260 261 264 264 264
275 268 265 259 259 265 266 263 264 267 264 272 277 272 267 263 257 262 266 266 267 276 272 267 272 275 264 258 257 256 255 264 271 267 260 261 262 262 264 264 264 265 265 266
272 272 279 287 282 265 257 252 253 263 259 255 269 274 273 273 273 273 274 274 275 273 269 268 267 263 262 262 263 263 263 264 264 264 263 263 264 264 265 265 267 269 269 269